QPF
0.00 0.00 0.01 0.01 0.00 0.00 0.00 0.00 0.00 0.00 0.00 0.00 0.00 0.00 0.00 0.00 0.00 0.00 0.00 0.00 0.00 0.00 0.00 0.00 0.00 0.00 0.00 0.00 0.00 0.00 0.00 0.00 0.00 0.00 0.00 0.00 0.00 0.00 0.00 0.00 0.00 0.00 0.00
0.00 0.00 0.00 0.00 0.00 0.00 0.00 0.00 0.00 0.00 0.00 0.00 0.00 0.00 0.00 0.00 0.00 0.00 0.00 0.00 0.00 0.00 0.00 0.00 0.00 0.00 0.00 0.00 0.00 0.00 0.00 0.00 0.00 0.00 0.00 0.00 0.00 0.00 0.00 0.00 0.00 0.00 0.00
0.00 0.00 0.00 0.00 0.00 0.00 0.00 0.00 0.00 0.00 0.00 0.00 0.00 0.00 0.00 0.00 0.00 0.00 0.00 0.00 0.00 0.00 0.00 0.00 0.00 0.00 0.00 0.00 0.00 0.00 0.00 0.00 0.00 0.00 0.00 0.00 0.00 0.00 0.00 0.00 0.00 0.00 0.00
0.00 0.00 0.00 0.00 0.00 0.00 0.00 0.00 0.00 0.00 0.00 0.00 0.00 0.00 0.00 0.00 0.00 0.00 0.00 0.00 0.00 0.00 0.00 0.00 0.00 0.00 0.00 0.00 0.00 0.00 0.00 0.00 0.00 0.00 0.00 0.00 0.00 0.00 0.00 0.00 0.00 0.00 0.00
0.01 0.01 0.01 0.00 0.00 0.00 0.00 0.00 0.00 0.00 0.00 0.00 0.00 0.00 0.00 0.00 0.00 0.00 0.00 0.00 0.00 0.00 0.00 0.00 0.00 0.00 0.00 0.00 0.00 0.00 0.00 0.00 0.00 0.00 0.00 0.00 0.00 0.00 0.00 0.00 0.00 0.00 0.00
0.00 0.00 0.00 0.00 0.00 0.00 0.00 0.00 0.00 0.00 0.00 0.00 0.00 0.00 0.00 0.00 0.00 0.00 0.00 0.00 0.00 0.00 0.00 0.00 0.00 0.00 0.00 0.00 0.00 0.00 0.00 0.00 0.00 0.00 0.00 0.00 0.00 0.00 0.00 0.00 0.00 0.00 0.00
0.00 0.00 0.00 0.00 0.00 0.00 0.00 0.00 0.00 0.00 0.00 0.00 0.00 0.00 0.00 0.00 0.00 0.00 0.00 0.00 0.00 0.00 0.00 0.00 0.00 0.00 0.00 0.00 0.00 0.00 0.00 0.00 0.00 0.00 0.00 0.00 0.00 0.00 0.00 0.00 0.00 0.00 0.00
0.00 0.00 0.00 0.00 0.00 0.00 0.00 0.01 0.01 0.00 0.00 0.00 0.00 0.00 0.00 0.00 0.00 0.00 0.00 0.00 0.00 0.00 0.00 0.00 0.00 0.00 0.00 0.00 0.00 0.00 0.00 0.00 0.00 0.00 0.00 0.00 0.00 0.00 0.00 0.00 0.01 0.02 0.00
0.00 0.00 0.00 0.00 0.01 0.03 0.05 0.02 0.00 0.00 0.00 0.00 0.00 0.00 0.00 0.00 0.00 0.00 0.00 0.00 0.00 0.00 0.00 0.00 0.00 0.00 0.00 0.00 0.00 0.00 0.00 0.00 0.00 0.00 0.00 0.00 0.00 0.00 0.00 0.01 0.01 0.00 0.00
0.00 0.00 0.01 0.03 0.04 0.03 0.00 0.00 0.00 0.00 0.00 0.00 0.00 0.00 0.00 0.00 0.00 0.00 0.00 0.00 0.00 0.00 0.00 0.00 0.00 0.00 0.00 0.00 0.00 0.00 0.00 0.00 0.00 0.00 0.00 0.00 0.00 0.00 0.00 0.00 0.00 0.01 0.00
0.01 0.04 0.06 0.03 0.00 0.00 0.00 0.00 0.00 0.00 0.00 0.00 0.00 0.00 0.00 0.00 0.00 0.00 0.00 0.00 0.00 0.00 0.00 0.00 0.00 0.00 0.00 0.00 0.00 0.00 0.00 0.00 0.00 0.00 0.00 0.00 0.00 0.00 0.00 0.00 0.00 0.00 0.00
0.02 0.01 0.00 0.00 0.00 0.00 0.00 0.00 0.00 0.00 0.00 0.00 0.00 0.00 0.00 0.00 0.00 0.00 0.00 0.00 0.00 0.00 0.00 0.00 0.00 0.00 0.00 0.00 0.00 0.00 0.00 0.00 0.00 0.00 0.00 0.00 0.00 0.00 0.00 0.00 0.00 0.00 0.00
0.00 0.00 0.00 0.00 0.00 0.00 0.00 0.00 0.00 0.00 0.00 0.00 0.00 0.00 0.00 0.00 0.00 0.00 0.00 0.00 0.00 0.00 0.00 0.00 0.00 0.00 0.00 0.00 0.00 0.00 0.00 0.00 0.00 0.00 0.00 0.00 0.00 0.00 0.00 0.00 0.00 0.00 0.00
0.00 0.00 0.00 0.00 0.00 0.00 0.00 0.00 0.00 0.00 0.00 0.00 0.00 0.00 0.00 0.00 0.00 0.00 0.00 0.01 0.01 0.01 0.00 0.00 0.00 0.00 0.00 0.00 0.00 0.00 0.00 0.00 0.00 0.00 0.00 0.00 0.00 0.00 0.00 0.00 0.00 0.00 0.00
0.00 0.00 0.00 0.00 0.00 0.00 0.00 0.00 0.00 0.00 0.00 0.00 0.00 0.00 0.00 0.00 0.00 0.00 0.01 0.01 0.02 0.02 0.01 0.01 0.00 0.00 0.00 0.00 0.00 0.00 0.00 0.00 0.00 0.00 0.00 0.00 0.00 0.00 0.00 0.00 0.00 0.00 0.00
0.00 0.00 0.00 0.00 0.00 0.00 0.00 0.00 0.00 0.00 0.00 0.00 0.00 0.00 0.00 0.00 0.00 0.00 0.00 0.00 0.00 0.01 0.04 0.02 0.00 0.00 0.00 0.00 0.00 0.00 0.00 0.00 0.00 0.00 0.00 0.00 0.00 0.00 0.00 0.00 0.00 0.00 0.00
0.00 0.00 0.00 0.00 0.00 0.00 0.00 0.00 0.00 0.00 0.00 0.00 0.00 0.01 0.01 0.00 0.00 0.00 0.00 0.01 0.01 0.05 0.06 0.00 0.00 0.00 0.00 0.00 0.00 0.00 0.00 0.00 0.00 0.00 0.00 0.00 0.00 0.00 0.00 0.00 0.00 0.00 0.00
0.00 0.00 0.00 0.00 0.00 0.00 0.00 0.00 0.00 0.01 0.01 0.02 0.01 0.02 0.03 0.00 0.00 0.00 0.00 0.02 0.05 0.05 0.02 0.00 0.00 0.00 0.00 0.00 0.00 0.00 0.00 0.00 0.00 0.00 0.00 0.00 0.00 0.00 0.00 0.00 0.00 0.00 0.00
0.00 0.00 0.00 0.00 0.00 0.00 0.00 0.00 0.01 0.01 0.03 0.03 0.01 0.00 0.00 0.00 0.00 0.00 0.00 0.04 0.04 0.01 0.00 0.00 0.00 0.00 0.00 0.00 0.00 0.00 0.00 0.00 0.00 0.00 0.00 0.00 0.00 0.00 0.00 0.00 0.00 0.00 0.00
0.00 0.00 0.00 0.00 0.00 0.00 0.00 0.00 0.01 0.01 0.02 0.02 0.01 0.00 0.00 0.00 0.00 0.00 0.00 0.02 0.04 0.02 0.01 0.01 0.01 0.00 0.00 0.00 0.00 0.00 0.00 0.00 0.00 0.00 0.00 0.00 0.00 0.00 0.00 0.00 0.00 0.00 0.00
0.00 0.00 0.00 0.00 0.00 0.00 0.00 0.00 0.01 0.01 0.02 0.02 0.02 0.01 0.00 0.00 0.01 0.01 0.01 0.00 0.01 0.02 0.02 0.02 0.01 0.00 0.00 0.00 0.00 0.00 0.00 0.00 0.00 0.00 0.00 0.00 0.00 0.00 0.00 0.00 0.00 0.00 0.00
0.00 0.00 0.00 0.00 0.00 0.00 0.00 0.01 0.03 0.07 0.07 0.05 0.02 0.00 0.00 0.00 0.01 0.01 0.01 0.01 0.00 0.00 0.01 0.03 0.02 0.01 0.00 0.00 0.00 0.00 0.00 0.00 0.00 0.00 0.00 0.00 0.00 0.00 0.00 0.00 0.00 0.00 0.00
0.00 0.00 0.00 0.00 0.00 0.00 0.01 0.01 0.03 0.03 0.02 0.02 0.04 0.04 0.01 0.00 0.03 0.07 0.07 0.03 0.02 0.02 0.02 0.04 0.03 0.02 0.00 0.00 0.00 0.00 0.00 0.00 0.00 0.00 0.00 0.00 0.00 0.00 0.00 0.00 0.00 0.00 0.00
0.00 0.00 0.00 0.00 0.00 0.01 0.02 0.02 0.02 0.03 0.07 0.10 0.07 0.03 0.02 0.01 0.03 0.03 0.04 0.03 0.03 0.02 0.04 0.07 0.06 0.04 0.01 0.00 0.01 0.01 0.00 0.00 0.00 0.00 0.00 0.00 0.00 0.00 0.00 0.00 0.00 0.00 0.00
0.00 0.00 0.00 0.00 0.00 0.00 0.00 0.01 0.02 0.04 0.06 0.07 0.06 0.04 0.03 0.01 0.00 0.00 0.01 0.01 0.02 0.02 0.02 0.03 0.05 0.05 0.03 0.03 0.02 0.01 0.00 0.01 0.01 0.01 0.01 0.00 0.00 0.00 0.00 0.00 0.00 0.00 0.00
0.00 0.00 0.00 0.00 0.00 0.00 0.00 0.01 0.01 0.01 0.02 0.03 0.04 0.03 0.02 0.01 0.01 0.00 0.00 0.00 0.01 0.02 0.03 0.04 0.04 0.03 0.01 0.00 0.01 0.01 0.01 0.02 0.03 0.03 0.02 0.01 0.01 0.00 0.00 0.00 0.00 0.00 0.00
MSLP
1017.79 1018.56 1019.33 1020.15 1020.70 1021.16 1021.73 1022.26 1022.66 1022.84 1023.27 1023.63 1024.06 1024.12 1024.41 1024.45 1024.59 1024.90 1024.96 1025.04 1025.25 1025.44 1025.76 1025.78 1025.65 1025.58 1025.65 1025.92 1026.08 1026.17 1026.52 1026.72 1026.72 1026.21 1025.84 1025.40 1025.26 1025.19 1024.45 1023.87 1023.36 1022.78 1022.24
1017.06 1018.02 1018.89 1019.43 1019.93 1020.62 1021.25 1021.84 1022.15 1022.59 1022.74 1023.09 1023.59 1023.96 1024.09 1024.32 1024.46 1024.71 1024.93 1025.08 1025.18 1025.34 1025.32 1025.40 1025.43 1025.33 1025.45 1025.67 1026.02 1026.27 1026.39 1026.47 1026.59 1026.35 1025.90 1025.39 1025.13 1024.81 1024.31 1023.84 1023.03 1022.41 1022.02
1017.15 1018.08 1018.88 1019.33 1019.75 1020.39 1020.91 1021.48 1021.95 1022.24 1022.85 1023.12 1023.45 1023.72 1023.76 1023.97 1024.26 1024.46 1024.58 1024.70 1024.85 1024.99 1025.15 1025.26 1025.20 1025.20 1025.30 1025.50 1025.79 1026.10 1026.21 1026.12 1026.06 1026.05 1025.62 1025.21 1024.91 1024.58 1024.02 1023.42 1022.86 1022.28 1021.64
1017.14 1017.64 1018.34 1018.89 1019.53 1020.16 1020.59 1020.91 1021.34 1021.91 1022.52 1022.96 1023.24 1023.32 1023.43 1023.50 1023.72 1024.00 1024.24 1024.46 1024.65 1024.68 1024.77 1024.84 1024.93 1024.90 1024.98 1025.11 1025.32 1025.57 1025.91 1025.97 1025.87 1025.64 1025.36 1025.13 1024.82 1024.19 1023.82 1023.31 1022.56 1022.08 1021.23
1017.07 1017.66 1018.67 1019.66 1020.51 1020.73 1020.83 1021.00 1021.22 1022.01 1022.28 1022.78 1023.04 1023.04 1022.90 1023.08 1023.17 1023.43 1023.73 1023.96 1024.10 1024.45 1024.52 1024.51 1024.40 1024.46 1024.32 1024.48 1024.94 1025.25 1025.50 1025.53 1025.47 1025.34 1025.19 1024.87 1024.38 1023.91 1023.57 1022.96 1022.46 1021.74 1020.83
1017.96 1018.92 1019.48 1019.39 1019.68 1020.21 1020.96 1021.59 1022.02 1022.17 1022.57 1022.71 1022.50 1022.55 1022.61 1022.69 1022.61 1022.84 1023.22 1023.69 1024.03 1024.15 1024.12 1024.19 1024.23 1024.09 1024.20 1024.22 1024.44 1024.68 1025.03 1025.01 1025.05 1025.07 1024.99 1024.72 1024.17 1023.89 1023.36 1022.79 1022.16 1021.56 1020.64
1018.48 1019.13 1019.74 1020.28 1020.56 1021.30 1021.88 1022.34 1022.44 1022.51 1022.36 1022.24 1022.14 1022.25 1022.28 1022.32 1022.33 1022.48 1022.81 1023.24 1023.61 1023.83 1023.93 1023.94 1023.84 1023.81 1024.06 1024.35 1024.36 1024.64 1024.82 1024.56 1024.44 1024.59 1024.58 1024.34 1023.91 1023.52 1022.97 1022.26 1021.64 1021.13 1020.40
1019.20 1019.74 1020.36 1020.78 1021.30 1021.91 1022.31 1022.48 1022.24 1022.11 1021.93 1021.98 1021.92 1021.81 1021.92 1021.98 1022.01 1022.17 1022.48 1022.96 1023.29 1023.42 1023.63 1023.78 1023.72 1023.71 1023.92 1024.08 1024.23 1024.45 1024.37 1024.16 1024.11 1024.08 1024.04 1023.79 1023.50 1022.88 1022.35 1021.66 1020.97 1020.32 1019.77
1020.25 1020.75 1020.94 1021.04 1021.63 1022.12 1021.93 1022.08 1021.96 1022.14 1022.13 1021.98 1021.68 1021.61 1021.76 1021.62 1021.57 1021.72 1022.25 1022.70 1022.92 1022.98 1023.05 1023.21 1023.27 1023.22 1023.43 1023.51 1023.91 1023.99 1023.89 1023.65 1023.55 1023.43 1023.24 1022.95 1022.52 1022.03 1021.51 1021.05 1020.72 1020.27 1019.28
1020.99 1021.39 1021.55 1021.52 1021.66 1021.67 1022.03 1022.32 1022.13 1022.02 1021.88 1021.75 1021.67 1021.55 1021.36 1021.34 1021.32 1021.39 1021.69 1022.07 1022.49 1022.57 1022.56 1022.64 1022.57 1022.76 1023.01 1023.24 1023.44 1023.50 1023.49 1023.31 1023.30 1023.12 1022.96 1022.62 1022.22 1021.79 1021.20 1020.93 1020.58 1020.14 1019.45
1021.18 1021.40 1021.64 1021.92 1022.13 1022.03 1021.88 1021.94 1021.84 1021.76 1021.73 1021.78 1021.69 1021.38 1021.13 1021.05 1021.10 1021.18 1021.28 1021.55 1021.72 1021.98 1022.14 1022.18 1022.22 1022.28 1022.44 1022.63 1022.64 1022.78 1022.92 1022.80 1022.85 1022.82 1022.68 1022.38 1021.97 1021.50 1020.99 1020.56 1020.18 1019.93 1019.31
1021.59 1021.78 1021.99 1022.08 1022.04 1021.83 1021.83 1021.81 1021.67 1021.71 1021.80 1021.72 1021.46 1021.17 1020.67 1020.55 1020.60 1020.67 1020.82 1020.89 1020.90 1021.33 1021.45 1021.42 1021.58 1021.83 1021.92 1022.03 1022.01 1022.06 1022.12 1022.30 1022.38 1022.53 1022.50 1022.15 1021.80 1021.22 1020.68 1020.25 1019.74 1019.20 1018.67
1021.92 1022.09 1022.12 1021.94 1021.75 1021.63 1021.66 1021.67 1021.56 1021.50 1021.43 1021.27 1021.12 1020.81 1020.44 1020.09 1019.96 1019.90 1019.90 1020.02 1020.17 1020.35 1020.45 1020.60 1020.99 1021.28 1021.40 1021.44 1021.45 1021.51 1021.60 1021.73 1022.01 1022.40 1022.21 1021.90 1021.43 1020.87 1020.38 1019.97 1019.32 1018.72 1018.02
1022.00 1021.98 1021.85 1021.85 1021.67 1021.44 1021.28 1021.16 1021.15 1020.92 1020.77 1020.63 1020.46 1020.26 1019.89 1019.73 1019.49 1019.22 1019.23 1019.26 1019.30 1019.56 1019.66 1020.04 1020.41 1020.64 1020.82 1020.90 1020.94 1020.97 1021.01 1021.13 1021.38 1021.55 1021.61 1021.33 1021.07 1020.69 1020.35 1019.92 1019.48 1018.71 1017.93
1022.05 1022.04 1021.91 1021.77 1021.56 1021.27 1020.95 1020.74 1020.54 1020.10 1019.97 1019.68 1019.48 1019.40 1019.28 1018.98 1018.48 1018.17 1018.20 1018.46 1018.52 1018.58 1019.08 1019.59 1020.03 1020.32 1020.37 1020.46 1020.47 1020.46 1020.38 1020.49 1020.84 1020.89 1021.24 1021.35 1021.02 1020.64 1020.35 1019.84 1019.40 1018.82 1018.27
1022.41 1022.28 1022.08 1021.79 1021.39 1021.02 1020.57 1019.85 1019.47 1019.13 1018.70 1018.41 1018.15 1018.04 1017.88 1017.79 1017.50 1017.35 1017.22 1017.28 1017.45 1017.70 1018.24 1018.65 1019.01 1019.38 1019.58 1019.73 1019.88 1019.87 1019.82 1019.94 1020.05 1020.30 1020.65 1020.81 1020.89 1020.68 1020.35 1019.84 1019.39 1019.00 1018.37
1022.83 1022.56 1022.22 1021.86 1021.53 1021.08 1020.48 1019.98 1019.19 1017.98 1017.85 1017.41 1017.19 1016.96 1017.11 1016.86 1016.65 1016.51 1016.34 1016.41 1016.49 1016.94 1017.08 1017.55 1017.95 1018.40 1018.65 1018.86 1019.01 1019.07 1019.12 1019.06 1019.21 1019.61 1020.03 1020.33 1020.52 1020.59 1020.36 1019.96 1019.55 1019.08 1018.38
1023.02 1022.74 1022.52 1022.08 1021.63 1021.04 1020.41 1019.68 1018.91 1018.10 1017.36 1016.82 1016.48 1016.56 1016.19 1016.13 1015.90 1015.63 1015.44 1015.55 1015.73 1015.84 1016.16 1016.53 1016.90 1017.25 1017.60 1017.89 1018.04 1018.15 1018.25 1018.48 1018.82 1019.10 1019.58 1019.89 1020.24 1020.43 1020.29 1020.00 1019.64 1019.31 1018.70
1023.21 1022.95 1022.58 1022.10 1021.54 1020.96 1020.23 1019.33 1018.42 1017.48 1016.73 1016.20 1015.91 1015.84 1015.48 1015.41 1015.13 1014.83 1014.64 1014.80 1014.80 1014.88 1015.17 1015.46 1015.67 1016.09 1016.46 1016.75 1016.95 1017.16 1017.40 1017.84 1018.14 1018.68 1019.04 1019.45 1019.66 1019.98 1020.06 1019.86 1019.59 1019.22 1018.77
1023.76 1023.35 1022.82 1022.21 1021.57 1020.87 1020.11 1019.16 1018.15 1017.25 1016.39 1015.70 1015.29 1015.24 1014.97 1015.18 1014.83 1014.33 1014.02 1013.86 1013.88 1013.94 1014.16 1014.35 1014.46 1014.80 1015.24 1015.61 1015.89 1016.20 1016.63 1017.04 1017.47 1017.97 1018.39 1018.71 1018.85 1019.23 1019.70 1019.64 1019.47 1019.31 1018.87
1024.23 1023.64 1023.11 1022.47 1021.83 1021.10 1020.27 1018.96 1018.01 1017.11 1016.16 1015.13 1014.62 1014.31 1014.30 1014.70 1014.32 1013.75 1013.25 1013.03 1012.95 1013.02 1013.10 1013.20 1013.38 1013.62 1014.00 1014.44 1014.77 1015.08 1015.47 1015.86 1016.22 1016.77 1017.28 1017.72 1018.20 1018.95 1018.90 1019.04 1019.35 1019.13 1018.79
1024.76 1024.16 1023.47 1022.70 1022.00 1021.34 1020.50 1019.20 1017.93 1016.73 1015.75 1015.00 1014.41 1014.15 1013.97 1014.26 1013.82 1013.08 1012.43 1012.14 1012.19 1012.23 1012.18 1012.15 1012.27 1012.46 1012.76 1013.15 1013.50 1013.89 1014.31 1014.68 1015.14 1015.59 1016.19 1016.80 1017.35 1017.85 1018.27 1018.80 1019.12 1019.04 1018.78
1025.24 1024.72 1024.28 1023.66 1022.95 1022.04 1020.95 1019.90 1018.87 1017.98 1016.55 1015.34 1014.78 1014.24 1014.28 1014.43 1013.83 1013.09 1012.33 1012.00 1011.79 1011.66 1011.43 1011.26 1011.25 1011.38 1011.65 1011.97 1012.31 1012.66 1013.10 1013.35 1013.68 1014.29 1015.08 1015.91 1016.59 1017.13 1017.74 1018.61 1018.83 1018.89 1018.79
1025.85 1025.40 1025.20 1024.59 1023.84 1022.92 1021.99 1021.12 1020.23 1019.39 1018.62 1017.82 1016.99 1016.36 1015.71 1015.11 1014.61 1014.09 1013.63 1013.25 1012.79 1012.23 1011.37 1010.71 1010.53 1010.51 1010.59 1010.97 1011.23 1011.49 1011.78 1012.07 1012.50 1013.13 1013.72 1014.67 1015.54 1016.26 1017.00 1017.69 1018.31 1018.60 1018.69
1026.48 1026.08 1025.90 1025.44 1024.69 1023.87 1023.03 1022.17 1021.42 1020.73 1019.98 1019.22 1018.41 1017.72 1017.04 1016.26 1015.83 1015.47 1014.93 1014.28 1013.62 1012.87 1012.11 1011.29 1010.05 1009.81 1009.90 1010.09 1010.30 1010.50 1010.72 1011.03 1011.50 1012.00 1012.76 1013.56 1014.51 1015.34 1016.15 1016.76 1017.56 1018.07 1018.46
1027.07 1026.75 1026.50 1026.07 1025.36 1024.73 1024.00 1023.18 1022.50 1021.79 1021.08 1020.32 1019.55 1018.82 1018.12 1017.35 1016.93 1016.44 1015.87 1015.07 1014.33 1013.42 1012.56 1011.78 1010.87 1009.75 1009.32 1009.38 1009.49 1009.69 1009.92 1010.21 1010.67 1011.15 1011.78 1012.62 1013.71 1014.83 1015.58 1016.19 1016.92 1017.72 1018.08
Thickness
5584 5572 5563 5552 5541 5532 5522 5512 5504 5497 5486 5476 5465 5457 5447 5440 5431 5421 5412 5404 5393 5382 5370 5360 5351 5342 5331 5319 5306 5294 5279 5265 5256 5255 5248 5244 5239 5234 5234 5234 5233 5234 5234
5579 5567 5555 5547 5538 5527 5516 5506 5496 5486 5476 5467 5455 5445 5437 5427 5417 5407 5396 5386 5376 5364 5354 5344 5334 5327 5315 5302 5287 5274 5261 5249 5239 5236 5234 5232 5228 5224 5224 5224 5223 5223 5223
5569 5557 5545 5535 5526 5515 5505 5494 5484 5476 5464 5453 5443 5433 5425 5415 5403 5392 5381 5371 5360 5348 5337 5327 5319 5310 5299 5285 5271 5257 5247 5239 5231 5226 5226 5222 5218 5215 5216 5215 5214 5214 5213
5561 5551 5539 5528 5517 5505 5496 5486 5476 5465 5452 5441 5431 5422 5412 5402 5390 5378 5366 5354 5343 5333 5323 5313 5304 5294 5282 5271 5259 5248 5237 5229 5223 5219 5217 5212 5208 5208 5206 5205 5207 5204 5206
5549 5539 5524 5510 5496 5490 5483 5474 5465 5451 5441 5429 5417 5407 5398 5386 5375 5362 5349 5337 5328 5316 5307 5298 5289 5280 5269 5259 5246 5236 5227 5221 5216 5213 5209 5205 5204 5201 5199 5198 5196 5199 5199
5529 5515 5505 5501 5493 5481 5467 5455 5445 5435 5423 5413 5405 5395 5383 5372 5362 5350 5336 5323 5312 5302 5293 5283 5273 5265 5253 5244 5235 5228 5219 5215 5210 5205 5201 5198 5197 5192 5191 5189 5189 5189 5194
5515 5504 5492 5481 5472 5458 5446 5435 5427 5417 5409 5400 5391 5381 5370 5358 5347 5336 5324 5311 5298 5287 5278 5270 5262 5253 5243 5233 5226 5218 5212 5208 5206 5200 5194 5190 5189 5186 5185 5185 5185 5185 5186
5497 5486 5474 5463 5453 5441 5429 5420 5415 5408 5399 5388 5378 5367 5356 5345 5333 5321 5310 5296 5285 5275 5265 5256 5248 5241 5233 5224 5218 5210 5206 5204 5201 5194 5190 5187 5184 5183 5181 5182 5183 5184 5183
5474 5464 5457 5450 5438 5426 5422 5411 5402 5392 5381 5371 5362 5351 5340 5332 5320 5309 5295 5283 5274 5265 5256 5247 5240 5233 5225 5219 5211 5206 5203 5201 5196 5192 5188 5185 5182 5180 5179 5179 5177 5177 5179
5456 5447 5439 5432 5422 5415 5403 5392 5383 5374 5365 5354 5343 5334 5327 5318 5308 5297 5286 5274 5263 5255 5248 5240 5233 5226 5218 5212 5205 5201 5197 5197 5192 5189 5185 5182 5178 5176 5175 5173 5172 5172 5173
5442 5433 5426 5418 5407 5397 5388 5378 5369 5358 5347 5336 5327 5319 5311 5304 5295 5286 5275 5264 5254 5246 5238 5232 5226 5219 5213 5208 5204 5199 5196 5194 5191 5187 5184 5180 5176 5173 5171 5170 5169 5168 5168
5426 5417 5408 5399 5390 5383 5372 5361 5351 5341 5331 5321 5311 5308 5301 5294 5285 5276 5266 5256 5248 5239 5232 5227 5221 5214 5209 5204 5201 5199 5197 5193 5188 5183 5179 5177 5174 5171 5169 5167 5167 5167 5168
5409 5400 5391 5384 5376 5367 5357 5346 5337 5325 5313 5308 5301 5295 5291 5283 5275 5267 5259 5250 5243 5235 5229 5223 5215 5209 5206 5202 5200 5198 5195 5190 5184 5176 5177 5174 5172 5171 5167 5165 5165 5166 5168
5393 5386 5378 5369 5360 5352 5343 5333 5323 5312 5303 5298 5292 5286 5280 5272 5263 5255 5249 5243 5238 5231 5225 5218 5211 5205 5201 5198 5195 5194 5192 5188 5183 5180 5174 5173 5171 5168 5164 5162 5160 5162 5164
5378 5370 5361 5354 5346 5338 5329 5319 5310 5304 5294 5288 5281 5274 5264 5262 5256 5250 5244 5237 5231 5227 5219 5211 5204 5198 5196 5194 5192 5191 5189 5186 5182 5178 5172 5169 5167 5165 5162 5160 5158 5158 5158
5360 5351 5343 5336 5329 5320 5313 5312 5306 5296 5291 5283 5274 5264 5259 5250 5247 5242 5239 5234 5228 5222 5215 5209 5203 5198 5195 5192 5189 5187 5186 5183 5181 5177 5171 5168 5165 5162 5159 5158 5156 5154 5154
5341 5334 5328 5320 5312 5305 5299 5290 5287 5296 5282 5275 5264 5255 5243 5240 5236 5233 5231 5227 5223 5216 5213 5203 5202 5195 5193 5190 5189 5187 5185 5183 5180 5176 5171 5167 5162 5161 5157 5156 5154 5152 5153
5323 5314 5306 5299 5291 5285 5280 5276 5272 5268 5266 5264 5255 5241 5235 5229 5225 5224 5222 5219 5216 5213 5208 5202 5199 5195 5193 5191 5188 5186 5184 5179 5176 5172 5167 5163 5157 5156 5153 5153 5152 5145 5148
5304 5295 5287 5280 5273 5266 5262 5260 5257 5255 5250 5244 5237 5229 5223 5218 5216 5216 5213 5210 5210 5207 5204 5200 5198 5195 5193 5191 5188 5184 5181 5177 5173 5167 5164 5160 5156 5155 5151 5150 5148 5147 5144
5283 5274 5266 5260 5255 5250 5245 5241 5238 5234 5230 5227 5224 5216 5211 5202 5200 5204 5204 5205 5204 5202 5199 5198 5196 5194 5192 5190 5187 5184 5179 5175 5171 5166 5162 5158 5155 5153 5149 5146 5144 5142 5145
5260 5255 5246 5240 5233 5229 5224 5223 5219 5214 5213 5215 5214 5207 5200 5194 5196 5198 5199 5198 5198 5197 5196 5195 5194 5193 5191 5189 5187 5184 5181 5177 5175 5170 5165 5161 5155 5150 5150 5146 5144 5143 5144
5237 5231 5225 5220 5214 5208 5203 5201 5202 5202 5201 5199 5199 5192 5186 5182 5185 5189 5192 5192 5191 5191 5192 5192 5192 5192 5191 5190 5189 5186 5182 5179 5175 5171 5166 5161 5157 5152 5148 5145 5142 5139 5140
5214 5207 5199 5192 5185 5180 5179 5177 5176 5174 5178 5182 5181 5181 5176 5170 5172 5176 5180 5181 5183 5185 5187 5188 5189 5190 5190 5189 5188 5187 5184 5181 5179 5174 5168 5161 5156 5152 5146 5142 5139 5136 5135
5192 5183 5173 5165 5158 5154 5151 5148 5147 5146 5145 5146 5148 5149 5151 5152 5153 5155 5158 5160 5163 5168 5176 5182 5184 5187 5189 5187 5187 5186 5185 5183 5179 5175 5170 5163 5157 5151 5144 5140 5137 5133 5131
5170 5159 5147 5139 5134 5130 5126 5123 5120 5118 5118 5119 5120 5122 5125 5130 5132 5132 5135 5140 5145 5151 5158 5165 5176 5181 5184 5184 5184 5184 5183 5181 5178 5175 5169 5163 5156 5150 5144 5140 5134 5132 5128
5147 5137 5125 5117 5112 5106 5102 5100 5097 5095 5093 5092 5093 5095 5099 5105 5108 5112 5116 5122 5128 5136 5144 5152 5161 5171 5176 5178 5179 5179 5179 5179 5176 5173 5168 5162 5154 5146 5140 5136 5131 5127 5125